Date String (YYYY-MM-DD hh:mm:ss) UTC,Instrument flags,Ambient pressure (hPa),Sample flow (lpm),Bypass flow (lpm),Sample temperature (°C),Ambient temperature (°C),ASC tube jacket temperature (°C),LED temperature (°C),Box temperature (°C),Sample RH (%),Span deviation,Mass concentration (μg/m³),Mass concentration (μg/m³),Mass concentration (μg/m³)
DateTimeUTC,F1_M11,P_M11,Q1_M11,Q2_M11,T1_M11,T2_M11,T3_M11,T4_M11,T5_M11,U1_M11,ZSPAN_M11,X0_M11,X2_M11,X1_M11
2021-10-29 21:00:00,,0826.2,5.00,0.00,30.0,29.1,00.0,38.9,31.9,09.5,0000.0,0006.07,0001.48,0000.87
2021-10-29 21:01:00,,0826.1,5.00,0.00,30.1,29.2,00.0,39.0,31.9,09.3,0000.0,0007.27,0001.46,0000.86
2021-10-29 21:02:00,,0826.1,4.99,0.00,30.1,29.3,00.0,39.0,32.0,09.4,0000.0,0008.12,0001.43,0000.86
2021-10-29 21:03:00,,0826.1,5.00,0.00,30.1,29.4,00.0,39.0,32.0,09.4,0000.0,0008.61,0001.37,0000.86
2021-10-29 21:04:00,,0826.2,5.00,0.00,30.2,29.5,00.0,39.0,32.1,09.5,0000.0,0009.07,0001.36,0000.87
2021-10-29 21:05:00,,0826.1,5.00,0.00,30.2,29.4,00.0,39.1,32.1,09.5,0000.0,0008.80,0001.38,0000.89
2021-10-29 21:06:00,,0826.0,4.99,0.00,30.2,27.6,00.0,39.1,31.8,09.4,0000.0,0008.53,0001.36,0000.89
2021-10-29 21:07:00,,0826.0,5.00,0.00,30.0,26.1,00.0,39.0,31.4,09.5,0000.0,0008.71,0001.39,0000.88
2021-10-29 21:08:00,,0826.0,5.00,0.00,29.9,26.2,00.0,39.0,31.4,09.6,0000.0,0008.25,0001.47,0000.88
2021-10-29 21:09:00,,0826.0,5.01,0.00,29.9,26.6,00.0,39.0,31.4,09.6,0000.0,0008.20,0001.47,0000.89
2021-10-29 21:10:00,,0826.0,5.00,0.00,29.8,27.1,00.0,38.9,31.4,09.6,0000.0,0008.41,0001.51,0000.90
2021-10-29 21:11:00,,0826.0,4.99,0.00,29.8,27.5,00.0,38.9,31.4,09.7,0000.0,0009.09,0001.53,0000.90
2021-10-29 21:12:00,,0826.0,5.00,0.00,29.8,27.9,00.0,38.9,31.5,09.8,0000.0,0008.51,0001.55,0000.90
2021-10-29 21:13:00,,0826.0,4.99,0.00,29.8,28.2,00.0,38.9,31.6,09.8,0000.0,0008.33,0001.57,0000.91
2021-10-29 21:14:00,,0826.0,5.00,0.00,29.9,28.5,00.0,38.9,31.7,09.7,0000.0,0008.45,0001.62,0000.90
2021-10-29 21:15:00,,0826.0,5.00,0.00,29.9,28.7,00.0,38.9,31.7,09.7,0000.0,0009.18,0001.64,0000.90
2021-10-29 21:16:00,,0825.9,5.00,0.00,29.9,28.8,00.0,38.9,31.8,09.7,0000.0,0008.84,0001.61,0000.89
2021-10-29 21:17:00,,0825.9,5.01,0.00,30.0,29.0,00.0,38.9,31.8,09.7,0000.0,0008.91,0001.62,0000.88
2021-10-29 21:18:00,,0825.9,5.01,0.00,30.0,29.1,00.0,38.9,31.9,09.4,0000.0,0009.03,0001.60,0000.88
2021-10-29 21:19:00,,0825.9,4.99,0.00,30.0,29.2,00.0,38.9,31.9,09.4,0000.0,0009.56,0001.53,0000.88
2021-10-29 21:20:00,,0825.9,5.00,0.00,30.1,29.3,00.0,38.9,32.0,09.3,0000.0,0009.60,0001.52,0000.87
2021-10-29 21:21:00,,0826.0,5.00,0.00,30.1,29.4,00.0,39.0,32.0,09.3,0000.0,0009.46,0001.48,0000.86
2021-10-29 21:22:00,,0825.9,5.01,0.00,30.2,29.4,00.0,39.0,32.0,09.4,0000.0,0008.87,0001.49,0000.85
2021-10-29 21:23:00,,0825.9,5.00,0.00,30.2,29.4,00.0,39.0,32.0,09.2,0000.0,0008.89,0001.53,0000.84
2021-10-29 21:24:00,,0825.9,5.00,0.00,30.2,27.9,00.0,39.0,31.8,09.2,0000.0,0008.22,0001.53,0000.83
2021-10-29 21:25:00,,0825.9,5.00,0.00,30.0,26.2,00.0,39.0,31.4,09.3,0000.0,0007.63,0001.53,0000.82
2021-10-29 21:26:00,,0825.9,5.00,0.00,29.9,26.1,00.0,39.0,31.4,09.3,0000.0,0006.45,0001.54,0000.81
2021-10-29 21:27:00,,0825.9,5.00,0.00,29.8,26.5,00.0,38.9,31.4,09.5,0000.0,0007.55,0001.51,0000.80
2021-10-29 21:28:00,,0825.9,5.00,0.00,29.8,27.0,00.0,38.9,31.4,09.4,0000.0,0008.67,0001.48,0000.79
2021-10-29 21:29:00,,0825.9,5.00,0.00,29.8,27.5,00.0,38.9,31.4,09.4,0000.0,0008.89,0001.53,0000.79
2021-10-29 21:30:00,,0825.8,4.99,0.00,29.8,27.8,00.0,38.8,31.5,09.5,0000.0,0008.37,0001.52,0000.78
2021-10-29 21:31:00,,0825.9,5.00,0.00,29.8,28.2,00.0,38.8,31.5,09.5,0000.0,0008.41,0001.56,0000.78
2021-10-29 21:32:00,,0825.7,4.99,0.00,29.8,28.4,00.0,38.8,31.6,09.5,0000.0,0008.52,0001.61,0000.78
2021-10-29 21:33:00,,0825.9,5.00,0.00,29.9,28.6,00.0,38.8,31.7,09.5,0000.0,0008.46,0001.58,0000.77
2021-10-29 21:34:00,,0825.8,5.01,0.00,29.9,28.8,00.0,38.8,31.7,09.5,0000.0,0009.86,0001.53,0000.77
2021-10-29 21:35:00,,0826.0,5.00,0.00,29.9,29.0,00.0,38.9,31.8,09.4,0000.0,0010.10,0001.53,0000.79
2021-10-29 21:36:00,,0826.0,5.00,0.00,30.0,29.1,00.0,38.9,31.8,09.4,0000.0,0010.33,0001.51,0000.79
2021-10-29 21:37:00,,0826.1,5.01,0.00,30.0,29.2,00.0,38.9,31.9,09.4,0000.0,0010.15,0001.51,0000.78
2021-10-29 21:38:00,,0826.0,4.99,0.00,30.0,29.3,00.0,38.9,32.0,09.4,0000.0,0009.32,0001.55,0000.79
2021-10-29 21:39:00,,0826.0,5.02,0.00,30.1,29.4,00.0,38.9,32.0,09.4,0000.0,0008.28,0001.61,0000.81
2021-10-29 21:40:00,,0825.7,5.00,0.00,30.1,29.4,00.0,39.0,32.0,09.4,0000.0,0007.99,0001.64,0000.81
2021-10-29 21:41:00,,0825.7,4.99,0.00,30.2,29.0,00.0,39.0,32.0,09.4,0000.0,0007.94,0001.65,0000.80
2021-10-29 21:42:00,,0825.7,5.00,0.00,30.1,26.9,00.0,39.0,31.5,09.4,0000.0,0008.20,0001.69,0000.79
2021-10-29 21:43:00,,0825.7,5.00,0.00,29.9,25.8,00.0,39.0,31.2,09.4,0000.0,0008.37,0001.70,0000.79
2021-10-29 21:44:00,,0825.7,5.00,0.00,29.8,26.1,00.0,38.9,31.2,09.5,0000.0,0008.51,0001.69,0000.79
2021-10-29 21:45:00,,0825.7,5.00,0.00,29.7,26.6,00.0,38.9,31.2,09.6,0000.0,0006.96,0001.70,0000.79
2021-10-29 21:46:00,,0825.7,4.99,0.00,29.7,27.1,00.0,38.8,31.3,09.6,0000.0,0006.57,0001.69,0000.78
2021-10-29 21:47:00,,0825.7,5.00,0.00,29.7,27.5,00.0,38.8,31.4,09.7,0000.0,0006.27,0001.69,0000.77
2021-10-29 21:48:00,,0825.7,5.01,0.00,29.7,27.9,00.0,38.8,31.4,09.7,0000.0,0006.88,0001.70,0000.77
2021-10-29 21:49:00,,0825.7,5.00,0.00,29.7,28.2,00.0,38.8,31.5,09.6,0000.0,0006.96,0001.64,0000.76
2021-10-29 21:50:00,,0825.6,5.00,0.00,29.8,28.4,00.0,38.8,31.6,09.6,0000.0,0006.98,0001.58,0000.73
2021-10-29 21:51:00,,0825.7,5.00,0.00,29.8,28.6,00.0,38.8,31.7,09.7,0000.0,0007.40,0001.53,0000.73
2021-10-29 21:52:00,,0825.7,5.01,0.00,29.8,28.8,00.0,38.8,31.7,09.7,0000.0,0007.60,0001.58,0000.74
2021-10-29 21:53:00,,0825.6,4.99,0.00,29.9,29.0,00.0,38.8,31.8,09.7,0000.0,0007.94,0001.53,0000.74
2021-10-29 21:54:00,,0825.6,5.01,0.00,29.9,29.1,00.0,38.8,31.8,09.6,0000.0,0009.12,0001.63,0000.75
2021-10-29 21:55:00,,0825.8,4.99,0.00,30.0,29.2,00.0,38.9,31.9,09.6,0000.0,0009.59,0001.69,0000.76
2021-10-29 21:56:00,,0825.6,5.00,0.00,30.0,29.3,00.0,38.9,31.9,09.6,0000.0,0009.86,0001.73,0000.75
2021-10-29 21:57:00,,0825.6,5.01,0.00,30.1,29.4,00.0,38.9,32.0,09.6,0000.0,0009.86,0001.76,0000.75
2021-10-29 21:58:00,,0825.6,5.00,0.00,30.1,29.1,00.0,38.9,31.9,09.5,0000.0,0010.04,0001.78,0000.76
2021-10-29 21:59:00,,0825.6,5.00,0.00,30.0,27.0,00.0,38.9,31.5,09.6,0000.0,0010.80,0001.79,0000.76
